Weather History for Toledo, OH

Change the Weather History Date:

Tuesday, March 19, 2013

  Actual Average Record
Temperature  
Mean Temperature 29 °F 39 °F  
Max Temperature 35 °F 48 °F 81 °F (2012)
Min Temperature 23 °F 29 °F 8 °F (1923)
Degree Days  
Heating Degree Days 36 26  
Month to date heating degree days 614 564  
Since 1 July heating degree days 5070 5140  
Cooling Degree Days 0 0  
Month to date cooling degree days 0 0  
Year to date cooling degree days 0 0  
Moisture  
Dew Point 17 °F    
Average Humidity 64    
Maximum Humidity 82    
Minimum Humidity 45    
Precipitation  
Precipitation T in 0.08 in 0.43 in (1957)
Month to date precipitation 0.54 1.44  
Year to date precipitation 6.98 5.56  
Snow  
Snow T in 0.10 in - ()
Month to date snowfall 0.1 4.1  
Since 1 July snowfall 20.8 34.6  
Snow Depth 0.00 in    
Sea Level Pressure  
Sea Level Pressure 29.82 in    
Wind  
Wind Speed 22 mph (WSW)    
Max Wind Speed 33 mph    
Max Gust Speed 41 mph    
Visibility 7 miles    
Events Snow    
T = Trace of Precipitation, MM = Missing Value Source: NWS Daily Summary

Daily Weather History Graph

Daily Weather History Graph

Search for Another Location

Airport:

Trip Planner

Search our weather history database for the weather conditions in past years. The results will help you decide how hot, cold, wet, or windy it might be!

Date:

Astronomy

Mar. 19, 2013 Rise Set
Actual Time 7:39 AM EDT 7:46 PM EDT
Civil Twilight 7:12 AM EDT 8:14 PM EDT
Nautical Twilight 6:39 AM EDT 8:46 PM EDT
Astronomical Twilight 6:06 AM EDT 9:19 PM EDT
Moon 12:24 PM EDT (3/19) 2:37 AM EDT (3/19)
Length of Visible Light 13h 02m
Length of Day
12h 06m
Waxing Crescent, 49% of the Moon is Illuminated
Mar 19
Waxing Crescent
Mar 19
First Quarter
Mar 27
Full
Apr 3
Last Quarter
Apr 10
New

Hourly Weather History & Observations

Time (EDT) Temp. Windchill Dew Point Humidity Pressure Visibility Wind Dir Wind Speed Gust Speed Precip Events Conditions
12:10 AM 33.8 °F 23.9 °F 30.2 °F 87% 29.68 in 6.0 mi WSW 15.0 mph 23.0 mph 0.00 in Snow Light Snow
12:41 AM 35.6 °F 27.1 °F 30.2 °F 81% 29.67 in 10.0 mi SW 12.7 mph 24.2 mph 0.00 in   Overcast
1:36 AM 33.8 °F 22.2 °F 26.6 °F 75% 29.67 in 10.0 mi West 20.7 mph 32.2 mph N/A   Overcast
1:52 AM 32.0 °F 18.9 °F 23.0 °F 69% 29.70 in 10.0 mi WSW 24.2 mph 34.5 mph N/A   Overcast
2:14 AM 32.0 °F 19.5 °F 24.8 °F 75% 29.68 in 10.0 mi West 21.9 mph 29.9 mph N/A   Overcast
2:38 AM 30.2 °F 15.9 °F 21.2 °F 69% 29.69 in 10.0 mi West 26.5 mph 35.7 mph N/A   Overcast
2:52 AM 30.0 °F 14.9 °F 21.0 °F 69% 29.72 in 10.0 mi West 29.9 mph 38.0 mph N/A   Overcast
3:16 AM 28.4 °F 13.8 °F 19.4 °F 69% 29.71 in 10.0 mi West 25.3 mph 35.7 mph N/A   Overcast
3:52 AM 28.0 °F 13.3 °F 19.9 °F 72% 29.75 in 10.0 mi WSW 25.3 mph 32.2 mph N/A   Overcast
4:52 AM 26.1 °F 10.4 °F 16.0 °F 66% 29.77 in 10.0 mi West 26.5 mph 34.5 mph N/A   Overcast
5:34 AM 24.8 °F 8.1 °F 14.0 °F 64% 29.76 in 9.0 mi WSW 28.8 mph 33.4 mph 0.00 in   Overcast
5:52 AM 25.0 °F 8.9 °F 12.9 °F 60% 29.78 in 10.0 mi West 26.5 mph 32.2 mph 0.00 in   Overcast
6:52 AM 24.1 °F 8.7 °F 12.9 °F 62% 29.81 in 10.0 mi WSW 23.0 mph 29.9 mph N/A   Overcast
7:20 AM 24.8 °F 10.7 °F 15.8 °F 69% 29.79 in 5.0 mi West 19.6 mph 28.8 mph 0.00 in Snow Light Snow
7:49 AM 23.0 °F 8.0 °F 12.2 °F 63% 29.80 in 9.0 mi West 20.7 mph 35.7 mph 0.00 in Snow Light Snow
7:52 AM 23.0 °F 8.7 °F 12.9 °F 65% 29.82 in 9.0 mi WSW 18.4 mph 29.9 mph 0.00 in   Overcast
8:52 AM 24.1 °F 10.6 °F 15.1 °F 69% 29.81 in 5.0 mi WSW 17.3 mph 29.9 mph 0.00 in Snow Light Snow
9:10 AM 24.8 °F 11.5 °F 15.8 °F 69% 29.79 in 2.5 mi WSW 17.3 mph - 0.00 in Snow Light Snow
9:21 AM 23.0 °F 9.6 °F 17.6 °F 80% 29.79 in 0.8 mi WSW 16.1 mph - 0.00 in Snow Light Snow
9:29 AM 23.0 °F 11.1 °F 17.6 °F 80% 29.79 in 0.8 mi WSW 12.7 mph 31.1 mph 0.00 in Snow Light Snow
9:32 AM 23.0 °F 9.6 °F 17.6 °F 80% 29.79 in 1.0 mi WSW 16.1 mph 31.1 mph 0.00 in Snow Light Snow
9:39 AM 23.0 °F 7.6 °F 17.6 °F 80% 29.79 in 1.5 mi WSW 21.9 mph 35.7 mph 0.00 in Snow Light Snow
9:52 AM 23.0 °F 5.7 °F 14.0 °F 68% 29.82 in 4.0 mi West 28.8 mph 35.7 mph 0.00 in Snow Light Snow
10:40 AM 24.8 °F 10.0 °F 12.2 °F 59% 29.81 in 9.0 mi West 21.9 mph 33.4 mph 0.00 in Snow Light Snow
10:52 AM 25.0 °F 10.6 °F 12.0 °F 58% 29.83 in 10.0 mi West 20.7 mph 32.2 mph 0.00 in   Overcast
11:29 AM 24.8 °F 9.6 °F 15.8 °F 69% 29.82 in 2.0 mi West 23.0 mph 31.1 mph 0.00 in Snow Light Snow
11:31 AM 24.8 °F 10.0 °F 17.6 °F 74% 29.83 in 1.2 mi West 21.9 mph 31.1 mph 0.00 in Snow Light Snow
11:40 AM 23.0 °F 8.0 °F 17.6 °F 80% 29.83 in 0.8 mi West 20.7 mph 31.1 mph 0.00 in Snow Light Snow
11:45 AM 24.8 °F 10.7 °F 15.8 °F 69% 29.82 in 2.0 mi West 19.6 mph 29.9 mph 0.00 in Snow Light Snow
11:52 AM 25.0 °F 8.6 °F 15.1 °F 66% 29.85 in 7.0 mi West 27.6 mph 34.5 mph 0.00 in Snow Light Snow
12:03 PM 24.8 °F 9.0 °F 15.8 °F 69% 29.83 in 1.8 mi West 25.3 mph 31.1 mph 0.00 in Snow Light Snow
12:11 PM 24.8 °F 11.1 °F 17.6 °F 74% 29.83 in 1.0 mi West 18.4 mph 29.9 mph 0.00 in Snow Light Snow
12:24 PM 24.8 °F 10.3 °F 17.6 °F 74% 29.83 in 2.0 mi WSW 20.7 mph 28.8 mph 0.00 in Snow Light Snow
12:32 PM 24.8 °F 9.0 °F 15.8 °F 69% 29.83 in 9.0 mi West 25.3 mph 31.1 mph 0.00 in Snow Light Snow
12:41 PM 26.6 °F 10.3 °F 14.0 °F 59% 29.84 in 10.0 mi West 29.9 mph 36.8 mph 0.00 in   Overcast
12:52 PM 26.1 °F 11.6 °F 14.0 °F 60% 29.86 in 9.0 mi West 21.9 mph 34.5 mph 0.00 in Snow Light Snow
1:52 PM 27.0 °F 12.5 °F 15.1 °F 61% 29.88 in 9.0 mi West 23.0 mph 31.1 mph 0.00 in Snow Light Snow
2:01 PM 26.6 °F 10.8 °F 15.8 °F 64% 29.86 in 7.0 mi West 27.6 mph 35.7 mph 0.00 in Snow Light Snow
2:52 PM 28.0 °F 13.0 °F 16.0 °F 61% 29.90 in 8.0 mi WSW 26.5 mph 34.5 mph 0.00 in Snow Light Snow
3:52 PM 30.0 °F 14.9 °F 12.9 °F 49% 29.90 in 10.0 mi WSW 29.9 mph 41.4 mph 0.00 in   Overcast
4:52 PM 30.9 °F 16.7 °F 12.9 °F 47% 29.91 in 10.0 mi WSW 27.6 mph 39.1 mph N/A   Overcast
5:52 PM 32.0 °F 18.4 °F 14.0 °F 48% 29.92 in 10.0 mi West 26.5 mph 36.8 mph N/A   Overcast
6:52 PM 32.0 °F 20.5 °F 14.0 °F 48% 29.93 in 10.0 mi West 18.4 mph 27.6 mph N/A   Mostly Cloudy
7:52 PM 30.9 °F 20.7 °F 14.0 °F 50% 29.96 in 10.0 mi West 13.8 mph 24.2 mph N/A   Clear
8:52 PM 30.0 °F 18.7 °F 14.0 °F 51% 29.97 in 10.0 mi West 16.1 mph - N/A   Clear
9:52 PM 30.0 °F 19.5 °F 12.0 °F 47% 29.99 in 10.0 mi West 13.8 mph - N/A   Clear
10:52 PM 28.9 °F 17.7 °F 12.0 °F 49% 29.99 in 10.0 mi West 15.0 mph 20.7 mph N/A   Clear
11:52 PM 27.0 °F 18.0 °F 12.9 °F 56% 29.99 in 10.0 mi West 9.2 mph - N/A   Clear